Chicopee, MA

2:06 PM EST on January 23, 2018 (GMT -0500)
Westover Air Reserve Base / Metropolitan Airport

Weather History for KCEF - August, 2013

Change the Weather History Date:

Wednesday, August 28, 2013

  Actual Average Record
Temperature  
Mean Temperature 75 °F -  
Max Temperature 86 °F 77 °F 91 °F (2004)
Min Temperature 64 °F 55 °F 44 °F (2010)
Cooling Degree Days 10    
Growing Degree Days 25 (Base 50)    
Moisture  
Dew Point 67 °F    
Average Humidity 97    
Maximum Humidity 100    
Minimum Humidity 55    
Precipitation  
Precipitation 0.00 in - - ()
Sea Level Pressure  
Sea Level Pressure 29.88 in    
Wind  
Wind Speed 2 mph (NNE)    
Max Wind Speed 10 mph    
Max Gust Speed -    
Visibility 2 miles    
Events Fog , Rain , Thunderstorm    
Averages and records for this station are not official NWS values.
T = Trace of Precipitation, MM = Missing Value Source: NWS Daily Summary

Daily Weather History Graph

Daily Weather History Graph

Search for Another Location

Airport or City:

Trip Planner

Search our weather history database for the weather conditions in past years. The results will help you decide how hot, cold, wet, or windy it might be!

Date:

Astronomy

Aug. 28, 2013 Rise Set
Actual Time 6:11 AM EDT 7:30 PM EDT
Civil Twilight 5:42 AM EDT 7:59 PM EDT
Nautical Twilight 5:07 AM EDT 8:34 PM EDT
Astronomical Twilight 4:30 AM EDT 9:10 PM EDT
Moon 11:58 PM EDT (8/28) 2:08 PM EDT (8/28)
Length of Visible Light 14h 16m
Length of Day
13h 18m
Waning Gibbous, 47% of the Moon is Illuminated
Aug 28
Waning Gibbous
Sep 5
New
Sep 12
First Quarter
Sep 19
Full
Sep 26
Last Quarter

Hourly Weather History & Observations

Time (EDT) Temp. Heat Index Dew Point Humidity Pressure Visibility Wind Dir Wind Speed Gust Speed Precip Events Conditions
12:09 AM 69.8 °F - 69.8 °F 100% 29.89 in 10.0 mi ENE 1.2 mph - N/A   Clear
12:43 AM 68.0 °F - 68.0 °F 100% 29.89 in 2.5 mi NE 3.5 mph - N/A   Clear
12:44 AM 68.0 °F - 68.0 °F 100% 29.89 in 2.0 mi NE 3.5 mph - N/A   Clear
12:45 AM 68.0 °F - 68.0 °F 100% 29.89 in 1.8 mi NE 3.5 mph - N/A   Clear
12:47 AM 68.0 °F - 68.0 °F 100% 29.89 in 1.5 mi NE 3.5 mph - N/A   Clear
12:50 AM 68.0 °F - 68.0 °F 100% 29.89 in 1.5 mi NE 3.5 mph - N/A Rain Light Rain
12:51 AM 68.0 °F - 68.0 °F 100% 29.89 in 1.8 mi ENE 3.5 mph - N/A   Light Drizzle
12:52 AM 68.0 °F - 68.0 °F 100% 29.89 in 2.0 mi ENE 3.5 mph - N/A   Light Drizzle
12:53 AM 68.0 °F - 68.0 °F 100% 29.89 in 2.5 mi ENE 3.5 mph - N/A   Light Drizzle
12:54 AM 68.0 °F - 68.0 °F 100% 29.89 in 3.0 mi ENE 3.5 mph - N/A   Light Drizzle
12:58 AM 68.7 °F - 68.4 °F 99% 29.91 in 6.0 mi NE 2.3 mph - 0.00 in   Light Drizzle
1:01 AM 68.0 °F - 68.0 °F 100% 29.88 in 8.0 mi ENE 3.5 mph - N/A   Clear
1:42 AM 66.2 °F - 66.2 °F 100% 29.87 in 2.0 mi NE 2.3 mph - N/A   Clear
1:43 AM 66.2 °F - 66.2 °F 100% 29.87 in 1.2 mi NE 2.3 mph - N/A   Clear
1:44 AM 66.2 °F - 66.2 °F 100% 29.88 in 1.0 mi NE 2.3 mph - N/A   Clear
1:45 AM 66.2 °F - 66.2 °F 100% 29.88 in 0.8 mi NE 2.3 mph - N/A   Clear
1:46 AM 66.2 °F - 66.2 °F 100% 29.87 in 0.5 mi NE 2.3 mph - N/A Fog Fog
1:47 AM 66.2 °F - 66.2 °F 100% 29.87 in 0.5 mi NE 2.3 mph - N/A Fog Fog
1:49 AM 66.2 °F - 66.2 °F 100% 29.87 in 0.5 mi Calm Calm - N/A Fog Fog
1:50 AM 66.2 °F - 66.2 °F 100% 29.87 in 0.5 mi North 1.2 mph - N/A Fog Fog
1:51 AM 68.0 °F - 66.2 °F 94% 29.87 in 0.2 mi North 1.2 mph - N/A Fog Fog
1:54 AM 68.0 °F - 66.2 °F 94% 29.87 in 0.5 mi North 1.2 mph - N/A Fog Fog
1:55 AM 68.0 °F - 66.2 °F 94% 29.87 in 0.5 mi Calm Calm - N/A Fog Fog
1:56 AM 68.0 °F - 66.2 °F 94% 29.87 in 0.5 mi Calm Calm - N/A Fog Fog
1:58 AM 68.0 °F - 66.2 °F 94% 29.88 in 0.5 mi Calm Calm - 0.00 in Fog Fog
1:59 AM 68.0 °F - 66.2 °F 94% 29.87 in 0.8 mi Calm Calm - N/A   Clear
2:00 AM 66.2 °F - 66.2 °F 100% 29.87 in 0.8 mi North 1.2 mph - N/A   Clear
2:01 AM 66.2 °F - 66.2 °F 100% 29.87 in 1.0 mi North 1.2 mph - N/A   Clear
2:02 AM 66.2 °F - 66.2 °F 100% 29.87 in 1.0 mi North 1.2 mph - N/A   Clear
2:03 AM 66.2 °F - 66.2 °F 100% 29.87 in 1.5 mi North 1.2 mph - N/A   Clear
2:04 AM 66.2 °F - 66.2 °F 100% 29.87 in 2.5 mi North 1.2 mph - N/A   Clear
2:05 AM 66.2 °F - 66.2 °F 100% 29.87 in 4.0 mi North 1.2 mph - N/A   Clear
2:08 AM 66.2 °F - 66.2 °F 100% 29.87 in 1.5 mi North 1.2 mph - N/A   Clear
2:09 AM 66.2 °F - 66.2 °F 100% 29.87 in 0.8 mi NNE 1.2 mph - N/A   Clear
2:10 AM 66.2 °F - 66.2 °F 100% 29.87 in 0.5 mi NNE 1.2 mph - N/A Fog Light Drizzle
2:11 AM 66.2 °F - 66.2 °F 100% 29.87 in 0.5 mi NNE 2.3 mph - N/A Fog Light Drizzle
2:12 AM 66.2 °F - 66.2 °F 100% 29.87 in 0.5 mi NNE 2.3 mph - N/A Fog Light Drizzle
2:13 AM 66.2 °F - 66.2 °F 100% 29.87 in 0.5 mi NNE 1.2 mph - N/A Fog Light Drizzle
2:15 AM 66.2 °F - 66.2 °F 100% 29.87 in 0.2 mi NE 1.2 mph - N/A Fog Light Drizzle
2:16 AM 66.2 °F - 66.2 °F 100% 29.87 in 0.2 mi NE 1.2 mph - N/A Fog Light Drizzle
2:23 AM 66.2 °F - 64.4 °F 94% 29.87 in 0.2 mi Calm Calm - N/A Fog Light Drizzle
2:24 AM 66.2 °F - 64.4 °F 94% 29.87 in 0.2 mi Calm Calm - N/A Fog Fog
2:25 AM 66.2 °F - 66.2 °F 100% 29.87 in 0.2 mi Calm Calm - N/A Fog Fog
2:29 AM 66.2 °F - 66.2 °F 100% 29.87 in 0.2 mi Calm Calm - N/A Fog Fog
2:31 AM 66.2 °F - 66.2 °F 100% 29.87 in 0.2 mi Calm Calm - N/A Fog Fog
2:32 AM 66.2 °F - 66.2 °F 100% 29.87 in 0.2 mi Calm Calm - N/A Fog Fog
2:34 AM 66.2 °F - 66.2 °F 100% 29.87 in 0.5 mi Calm Calm - N/A Fog Fog
2:35 AM 66.2 °F - 66.2 °F 100% 29.87 in 0.5 mi Calm Calm - N/A Fog Fog
2:36 AM 66.2 °F - 66.2 °F 100% 29.87 in 0.8 mi Calm Calm - N/A   Clear
2:37 AM 66.2 °F - 66.2 °F 100% 29.87 in 1.0 mi Calm Calm - N/A   Clear
2:40 AM 66.2 °F - 66.2 °F 100% 29.87 in 0.8 mi Calm Calm - N/A   Clear
2:41 AM 66.2 °F - 66.2 °F 100% 29.87 in 0.8 mi Calm Calm - N/A   Clear
2:42 AM 66.2 °F - 66.2 °F 100% 29.87 in 0.5 mi Calm Calm - N/A Fog Fog
2:43 AM 66.2 °F - 66.2 °F 100% 29.87 in 0.5 mi Calm Calm - N/A Fog Fog
2:45 AM 66.2 °F - 66.2 °F 100% 29.87 in 0.5 mi Calm Calm - N/A Fog Fog
2:46 AM 66.2 °F - 66.2 °F 100% 29.87 in 0.5 mi Calm Calm - N/A Fog Fog
2:52 AM 66.2 °F - 66.2 °F 100% 29.87 in 0.5 mi WNW 1.2 mph - N/A Fog Fog
2:53 AM 66.2 °F - 66.2 °F 100% 29.87 in 0.5 mi WNW 1.2 mph - N/A Fog Fog
2:56 AM 66.2 °F - 66.2 °F 100% 29.87 in 0.8 mi Calm Calm - N/A   Mist
2:57 AM 66.2 °F - 66.2 °F 100% 29.87 in 0.8 mi Calm Calm - N/A   Mist
2:58 AM 66.6 °F - 66.4 °F 99% 29.88 in 1.0 mi Calm Calm - 0.00 in   Mist
2:59 AM 66.2 °F - 66.2 °F 100% 29.87 in 1.5 mi Calm Calm - N/A   Partly Cloudy
3:00 AM 66.2 °F - 66.2 °F 100% 29.87 in 2.0 mi Calm Calm - N/A   Partly Cloudy
3:01 AM 66.2 °F - 66.2 °F 100% 29.87 in 4.0 mi Calm Calm - N/A   Partly Cloudy
3:04 AM 66.2 °F - 66.2 °F 100% 29.87 in 2.5 mi Calm Calm - N/A   Partly Cloudy
3:05 AM 66.2 °F - 66.2 °F 100% 29.87 in 1.8 mi Calm Calm - N/A   Partly Cloudy
3:06 AM 66.2 °F - 66.2 °F 100% 29.87 in 1.2 mi Variable 1.2 mph - N/A   Partly Cloudy
3:07 AM 66.2 °F - 66.2 °F 100% 29.87 in 1.0 mi NE 1.2 mph - N/A   Mist
3:08 AM 66.2 °F - 66.2 °F 100% 29.87 in 0.8 mi ENE 1.2 mph - N/A   Mist
3:09 AM 66.2 °F - 66.2 °F 100% 29.87 in 0.8 mi ENE 1.2 mph - N/A   Mist
3:10 AM 66.2 °F - 66.2 °F 100% 29.87 in 0.8 mi NE 1.2 mph - N/A   Mist
3:11 AM 66.2 °F - 66.2 °F 100% 29.87 in 0.5 mi NE 1.2 mph - N/A Fog Fog
3:13 AM 64.4 °F - 64.4 °F 100% 29.87 in 0.5 mi NE 1.2 mph - N/A Fog Fog
3:14 AM 64.4 °F - 64.4 °F 100% 29.87 in 0.5 mi NNE 1.2 mph - N/A Fog Fog
3:20 AM 64.4 °F - 64.4 °F 100% 29.87 in 0.5 mi ENE 2.3 mph - N/A Fog Fog
3:21 AM 64.4 °F - 64.4 °F 100% 29.87 in 0.2 mi ENE 2.3 mph - N/A Fog Fog
3:28 AM 66.2 °F - 66.2 °F 100% 29.87 in 0.2 mi ENE 2.3 mph - N/A Fog Fog
3:29 AM 66.2 °F - 66.2 °F 100% 29.87 in 0.5 mi ENE 2.3 mph - N/A Fog Fog
3:31 AM 66.2 °F - 66.2 °F 100% 29.87 in 0.5 mi ENE 2.3 mph - N/A Fog Fog
3:35 AM 64.4 °F - 64.4 °F 100% 29.86 in 0.8 mi East 1.2 mph - N/A   Clear
3:38 AM 66.2 °F - 64.4 °F 94% 29.87 in 1.0 mi ENE 1.2 mph - N/A   Clear
3:40 AM 66.2 °F - 66.2 °F 100% 29.87 in 1.0 mi Calm Calm - N/A   Clear
3:46 AM 66.2 °F - 66.2 °F 100% 29.86 in 1.0 mi Calm Calm - N/A   Clear
3:48 AM 66.2 °F - 66.2 °F 100% 29.86 in 0.8 mi Calm Calm - N/A   Clear
3:49 AM 66.2 °F - 66.2 °F 100% 29.86 in 1.0 mi Calm Calm - N/A   Clear
3:50 AM 66.2 °F - 66.2 °F 100% 29.86 in 1.0 mi NNE 1.2 mph - N/A   Mist
3:51 AM 66.2 °F - 66.2 °F 100% 29.87 in 1.2 mi NNE 1.2 mph - N/A   Partly Cloudy
3:52 AM 66.2 °F - 64.4 °F 94% 29.87 in 1.2 mi NNE 2.3 mph - N/A   Partly Cloudy
3:53 AM 64.4 °F - 64.4 °F 100% 29.87 in 1.5 mi NNE 2.3 mph - N/A   Partly Cloudy
3:54 AM 64.4 °F - 64.4 °F 100% 29.86 in 1.8 mi NNE 2.3 mph - N/A   Scattered Clouds
3:55 AM 64.4 °F - 64.4 °F 100% 29.86 in 2.5 mi NNE 2.3 mph - N/A   Scattered Clouds
3:56 AM 64.4 °F - 64.4 °F 100% 29.87 in 4.0 mi NE 3.5 mph - N/A   Scattered Clouds
3:58 AM 64.4 °F - 64.4 °F 100% 29.88 in 4.0 mi NE 3.5 mph - N/A   Scattered Clouds
3:59 AM 64.4 °F - 64.4 °F 100% 29.86 in 2.5 mi NE 3.5 mph - N/A   Scattered Clouds
4:00 AM 64.4 °F - 64.4 °F 100% 29.86 in 1.5 mi NE 3.5 mph - N/A   Mostly Cloudy
4:01 AM 64.4 °F - 64.4 °F 100% 29.86 in 1.0 mi NE 3.5 mph - N/A   Mist
4:02 AM 64.4 °F - 64.4 °F 100% 29.86 in 0.8 mi NE 3.5 mph - N/A   Mist
4:03 AM 64.4 °F - 64.4 °F 100% 29.86 in 0.8 mi NE 3.5 mph - N/A   Mist
4:04 AM 64.4 °F - 64.4 °F 100% 29.86 in 0.5 mi NE 3.5 mph - N/A Fog Fog
4:05 AM 64.4 °F - 64.4 °F 100% 29.86 in 0.5 mi NE 3.5 mph - N/A Fog Fog
4:11 AM 66.2 °F - 66.2 °F 100% 29.86 in 0.8 mi ENE 2.3 mph - N/A   Mostly Cloudy
4:12 AM 66.2 °F - 66.2 °F 100% 29.86 in 0.8 mi ENE 2.3 mph - N/A   Mostly Cloudy
4:13 AM 66.2 °F - 66.2 °F 100% 29.86 in 1.0 mi ENE 2.3 mph - N/A   Mostly Cloudy
4:14 AM 66.2 °F - 66.2 °F 100% 29.86 in 1.2 mi ENE 2.3 mph - N/A   Mostly Cloudy
4:15 AM 66.2 °F - 66.2 °F 100% 29.87 in 1.5 mi ENE 2.3 mph - N/A   Overcast
4:16 AM 66.2 °F - 66.2 °F 100% 29.87 in 1.8 mi ENE 2.3 mph - N/A   Overcast
4:17 AM 66.2 °F - 66.2 °F 100% 29.87 in 2.0 mi ENE 2.3 mph - N/A   Overcast
4:19 AM 66.2 °F - 66.2 °F 100% 29.87 in 2.5 mi NE 1.2 mph - N/A   Overcast
4:21 AM 66.2 °F - 66.2 °F 100% 29.87 in 3.0 mi North 2.3 mph - N/A   Overcast
4:37 AM 66.2 °F - 66.2 °F 100% 29.86 in 2.5 mi NE 2.3 mph - N/A   Overcast
4:38 AM 66.2 °F - 66.2 °F 100% 29.86 in 1.8 mi NE 2.3 mph - N/A   Overcast
4:39 AM 66.2 °F - 66.2 °F 100% 29.86 in 1.2 mi NNE 3.5 mph - N/A   Overcast
4:40 AM 66.2 °F - 66.2 °F 100% 29.86 in 1.0 mi NNE 2.3 mph - N/A   Mist
4:41 AM 66.2 °F - 66.2 °F 100% 29.86 in 0.8 mi NNE 2.3 mph - N/A   Mist
4:42 AM 66.2 °F - 66.2 °F 100% 29.86 in 0.8 mi NNE 2.3 mph - N/A   Mist
4:43 AM 66.2 °F - 66.2 °F 100% 29.86 in 0.8 mi NNE 2.3 mph - N/A   Mist
4:44 AM 66.2 °F - 66.2 °F 100% 29.86 in 0.5 mi NNE 2.3 mph - N/A Fog Fog
4:47 AM 66.2 °F - 66.2 °F 100% 29.86 in 0.5 mi NNE 2.3 mph - N/A Fog Fog
4:52 AM 66.2 °F - 66.2 °F 100% 29.86 in 0.5 mi NNE 2.3 mph - N/A Fog Fog
4:53 AM 66.2 °F - 66.2 °F 100% 29.86 in 0.2 mi NNE 2.3 mph - N/A Fog Fog
4:54 AM 66.2 °F - 66.2 °F 100% 29.86 in 0.2 mi North 1.2 mph - N/A Fog Fog
4:55 AM 66.2 °F - 66.2 °F 100% 29.86 in 0.2 mi Calm Calm - N/A Fog Fog
4:58 AM 67.1 °F - 66.7 °F 99% 29.88 in 0.2 mi NNE 1.2 mph - N/A Fog Fog
5:05 AM 66.2 °F - 66.2 °F 100% 29.86 in 0.2 mi Calm Calm - N/A Fog Fog
5:10 AM 66.2 °F - 66.2 °F 100% 29.87 in 0.2 mi North - - N/A Fog Fog
5:11 AM 66.2 °F - 66.2 °F 100% 29.87 in 0.2 mi Calm Calm - N/A Fog Fog
5:17 AM 68.0 °F - 66.2 °F 94% 29.87 in 0.5 mi NNE 2.3 mph - N/A Fog Fog
5:31 AM 68.0 °F - 68.0 °F 100% 29.87 in 0.5 mi North 1.2 mph - N/A Fog Fog
5:37 AM 68.0 °F - 68.0 °F 100% 29.87 in 0.5 mi NW 1.2 mph - N/A Fog Fog
5:43 AM 68.0 °F - 68.0 °F 100% 29.88 in 0.5 mi NW 1.2 mph - N/A Fog Fog
5:58 AM 68.0 °F - 67.6 °F 99% 29.90 in 0.5 mi Calm Calm - N/A Fog Fog
6:00 AM 68.0 °F - 68.0 °F 100% 29.88 in 0.5 mi Calm Calm - N/A Fog Fog
6:02 AM 68.0 °F - 68.0 °F 100% 29.88 in 0.5 mi Calm Calm - N/A Fog Fog
6:12 AM 68.0 °F - 68.0 °F 100% 29.88 in 0.2 mi Calm Calm - N/A Fog Fog
6:18 AM 68.0 °F - 68.0 °F 100% 29.89 in 0.2 mi Calm Calm - N/A Fog Fog
6:22 AM 68.0 °F - 68.0 °F 100% 29.89 in 0.5 mi NW 1.2 mph - N/A Fog Fog
6:28 AM 68.0 °F - 68.0 °F 100% 29.89 in 0.2 mi Calm Calm - N/A Fog Fog
6:30 AM 68.0 °F - 68.0 °F 100% 29.89 in 0.2 mi NW 2.3 mph - N/A Fog Fog
6:32 AM 68.0 °F - 68.0 °F 100% 29.89 in 0.2 mi NW 2.3 mph - N/A Fog Fog
6:43 AM 68.0 °F - 68.0 °F 100% 29.89 in 0.2 mi NNW 2.3 mph - N/A Fog Fog
6:50 AM 68.0 °F - 68.0 °F 100% 29.89 in 0.2 mi NNW 1.2 mph - N/A Fog Fog
6:58 AM 68.0 °F - 68.0 °F 100% 29.91 in 0.2 mi North 2.3 mph - N/A Fog Fog
7:01 AM 68.0 °F - 68.0 °F 100% 29.90 in 0.2 mi North 1.2 mph - N/A Fog Fog
7:07 AM 68.0 °F - 68.0 °F 100% 29.90 in 0.2 mi North 2.3 mph - N/A Fog Fog
7:14 AM 68.0 °F - 68.0 °F 100% 29.90 in 0.2 mi North 2.3 mph - N/A Fog Fog
7:37 AM 68.0 °F - 68.0 °F 100% 29.90 in 0.2 mi NNE 1.2 mph - N/A Fog Fog
7:53 AM 68.0 °F - 68.0 °F 100% 29.90 in 0.2 mi North 1.2 mph - N/A Fog Fog
7:55 AM 68.0 °F - 68.0 °F 100% 29.90 in 0.2 mi Calm Calm - N/A Fog Fog
7:56 AM 68.0 °F - 68.0 °F 100% 29.90 in 0.2 mi Calm Calm - N/A Fog Fog
7:58 AM 68.0 °F - 68.0 °F 100% 29.92 in 0.2 mi Calm Calm - N/A Fog Fog
8:11 AM 69.8 °F - 68.0 °F 94% 29.90 in 0.2 mi NNW 1.2 mph - N/A Fog Fog
8:14 AM 69.8 °F - 68.0 °F 94% 29.90 in 0.2 mi Calm Calm - N/A Fog Fog
8:17 AM 69.8 °F - 68.0 °F 94% 29.90 in 0.5 mi Calm Calm - N/A Fog Fog
8:19 AM 69.8 °F - 68.0 °F 94% 29.90 in 0.5 mi Variable 1.2 mph - N/A Fog Fog
8:24 AM 69.8 °F - 69.8 °F 100% 29.90 in 0.8 mi Calm Calm - N/A   Mist
8:25 AM 69.8 °F - 69.8 °F 100% 29.90 in 0.8 mi Calm Calm - N/A   Mist
8:26 AM 69.8 °F - 69.8 °F 100% 29.90 in 1.0 mi Calm Calm - N/A   Mist
8:28 AM 69.8 °F - 69.8 °F 100% 29.90 in 1.2 mi Calm Calm - N/A   Overcast
8:36 AM 69.8 °F - 68.0 °F 94% 29.90 in 2.0 mi Calm Calm - N/A   Mostly Cloudy
8:41 AM 69.8 °F - 68.0 °F 94% 29.90 in 2.5 mi NNW 1.2 mph - N/A   Mostly Cloudy
8:47 AM 69.8 °F - 69.8 °F 100% 29.90 in 7.0 mi NNW 1.2 mph - N/A   Overcast
8:53 AM 69.8 °F - 69.8 °F 100% 29.90 in 10.0 mi NNW 1.2 mph - N/A   Overcast
8:54 AM 69.8 °F - 69.8 °F 100% 29.90 in 10.0 mi NNW 2.3 mph - N/A   Light Drizzle
8:58 AM 69.4 °F - 69.4 °F 100% 29.92 in 10.0 mi North 1.2 mph - 0.00 in   Light Drizzle
9:02 AM 69.8 °F - 69.8 °F 100% 29.90 in 10.0 mi Calm Calm - N/A   Overcast
9:08 AM 69.8 °F - 69.8 °F 100% 29.90 in 7.0 mi Calm Calm - N/A   Overcast
9:58 AM 71.6 °F - 71.6 °F 100% 29.92 in 7.0 mi North 2.3 mph - N/A   Scattered Clouds
10:58 AM 75.7 °F - 75.0 °F 98% 29.91 in 10.0 mi Variable 4.6 mph - N/A   Scattered Clouds
11:58 AM 81.0 °F 85.2 °F 71.8 °F 74% 29.90 in 10.0 mi Variable 1.2 mph - N/A   Scattered Clouds
12:58 PM 84.0 °F 88.7 °F 70.9 °F 64% 29.88 in 10.0 mi Variable 1.2 mph - N/A   Scattered Clouds
1:58 PM 85.3 °F 90.4 °F 70.9 °F 62% 29.86 in 10.0 mi SSE 4.6 mph - N/A   Scattered Clouds
2:58 PM 86.0 °F 89.7 °F 68.7 °F 56% 29.86 in 10.0 mi SSE 10.4 mph - N/A   Scattered Clouds
3:58 PM 85.6 °F 88.8 °F 67.6 °F 55% 29.86 in 10.0 mi SSE 9.2 mph - N/A   Scattered Clouds
4:58 PM 86.0 °F 89.7 °F 68.7 °F 56% 29.86 in 10.0 mi South 10.4 mph - N/A   Mostly Cloudy
5:38 PM 82.4 °F 87.2 °F 71.6 °F 70% 29.85 in 10.0 mi SSE 9.2 mph - N/A Thunderstorm Mostly Cloudy
5:58 PM 81.3 °F 85.2 °F 70.5 °F 70% 29.88 in 10.0 mi SSE 9.2 mph - N/A Thunderstorm Mostly Cloudy
6:26 PM 78.8 °F - 69.8 °F 74% 29.87 in 10.0 mi South 4.6 mph - N/A   Overcast
6:58 PM 77.9 °F - 68.9 °F 74% 29.90 in 10.0 mi South 4.6 mph - N/A   Overcast
7:58 PM 75.4 °F - 67.8 °F 77% 29.91 in 10.0 mi SSW 8.1 mph - N/A   Mostly Cloudy
8:58 PM 74.3 °F - 67.5 °F 79% 29.92 in 10.0 mi ESE 2.3 mph - N/A   Scattered Clouds
9:58 PM 72.5 °F - 70.2 °F 92% 29.94 in 10.0 mi ESE 2.3 mph - N/A   Partly Cloudy
10:58 PM 71.1 °F - 70.9 °F 99% 29.95 in 10.0 mi WSW 1.2 mph - N/A   Mostly Cloudy
11:58 PM 71.1 °F - 70.7 °F 99% 29.95 in 10.0 mi ENE 2.3 mph - N/A   Mostly Cloudy